カタログに戻る

STARLINK-30892

運用中通信VLEO
NORAD 58366·PAYLOAD·🇺🇸 United States

打ち上げ Nov 18, 2023 から Cape Canaveral Space Force Station

Loading…

次のパス (今後24時間)

TLE

最新Source: CelesTrak SupGP

元期: Sep 15, 2026, 03:24 UTC

1 58366C 23177R   26258.14215278 -.00002782  00000+0 -10077-3 0  2587
2 58366  43.0036   0.7238 0001939 258.0596  12.8927 15.27573456    18

AllMySatでSTARLINK-30892をリアルタイム追跡

Download on the App Store